www.pogodaiklimat.ru

Погода и климат >> Архив погоды >> Мексика >> Сото ла Марина


ПОГОДА в Сото ла Марина

  • Прогноз погоды в Сото ла Марина
  • Монитор погоды в Сото ла Марина

АРХИВ ПОГОДЫ в Сото ла Марина

Время (UTC), дата Ветер
(напр.,м/с)
 
Видим.   Явления Облачность Т
(С)
Тd
(С)
f
(%)
Тe
(С)
Тes
(С)
Комфортность P
(гПа)
Po
(гПа)
Тmin
(С)
Tmax
(С)
R
(мм)
R24
(мм)
S
(см)
21 8.02 СЗ 3 9000 м 10/0 2000 м
[As op]
+13.1 +8.2 72 +12 +13 1028.2 1026.2
00 9.02 С 1 10 км 10/0 2000 м
[As op]
+11.2 +5.5 68 +11 +11 1029.1 1026.5 +11.1 +30.8
03 9.02 С 1 6000 м в посл. час морось 10/0 2000 м
[As op]
+9.6 +5.1 74 +9 +9 1030.6 1028.0 0.2
06 9.02 С 1 5000 м слаб. морось 10/0 2000 м
[]
+9.4 +4.9 73 +9 +9 1030.7 1028.1 +30.8 0.5
12 9.02 С 2 3000 м слаб. морось 10/0 2000 м
[As op]
+8.9 +7.2 89 +7 +7 1028.8 1026.2 +8.8 +30.8 5
15 9.02 С 2 3000 м слаб. морось 10/10 300 м
[Frnb]
+9.5 +8.5 93 +8 +8 1030.4 1027.8 2
18 9.02 С 1 3000 м слаб. морось 10/6 450 м
[St As op]
+10.6 +8.9 89 +10 +11 1029.4 1026.8 +8.8 +10.7 0.7
21 9.02 С 1 10 км 10/5 450 м
[St As op]
+12.9 +9.3 79 +13 +14 1026.2 1023.6
00 10.02 С 2 9000 м {морось} 10/5 450 м
[St As op]
+12.2 +7.6 73 +11 +11 1025.3 1022.7 +8.8 +12.9 0.7
03 10.02 СЗ 1 5000 м 10/0 2000 м
[As op]
+10.4 +6.3 76 +10 +10 1026.2 1023.6
12 10.02 штиль 0 6000 м 10/10 300 м
[St]
+9.9 +8.4 90 +9 +9 1022.0 1019.4 +9.7
15 10.02 штиль 0 7000 м 10/10 300 м
[St]
+10.1 +8.4 89 +9 +9 1022.7 1020.1
18 10.02 СЗ 1 9000 м 10/10 450 м
[St]
+13.2 +6.7 65 +14 +14 1022.0 1019.4 +9.7 +13.2
21 10.02 СЗ 1 10 км 4/4 960 м
[Sc]
+20.2 +10.8 55 +23 +29 комфорт 1017.5 1015.0
00 11.02 штиль 0 10 км ясно +22.5 +15.8 66 +27 +27 душно 1013.8 1011.3 +9.8 +23.1
03 11.02 С 1 6000 м ясно +16.6 +14.7 89 +17 +17 1017.3 1014.8
06 11.02 штиль 0 5000 м ясно +14.4 +12.7 90 +14 +14 1017.0 1014.5 +23.1
09 11.02 штиль 0 5000 м ясно +13.2 +12.3 94 +13 +13 1015.7 1013.2
12 11.02 штиль 0 300 м туман ясно +11.8 +11.8 100 +11 +11 1013.2 1010.7 +11.6 +23.1
15 11.02 штиль 0 400 м туман ?/? +13.4 +13.0 97 +13 +13 1014.0 1011.5
18 11.02 ЮВ 1 10 км ясно +22.2 +13.3 57 +25 +41 комфорт 1011.5 1009.0 +11.6 +22.2
21 11.02 ЮВ 3 10 км 3/3 600 м
[Cu med, cong]
+29.6 +17.1 47 +33 +38 душно 1027.2 1004.7
00 12.02 ЮВ 3 10 км ясно +27.8 +19.0 59 +33 +33 очень
душно
1006.2 1003.8 +11.7 +29.7
03 12.02 ЮВ 2 6000 м ясно +21.5 +17.4 77 +26 +26 душно 1008.2 1005.8
06 12.02 штиль 0 5000 м ясно +20.0 +17.2 84 +23 +23 комфорт 1014.7 1012.3 +29.7
09 12.02 штиль 0 5000 м ясно +18.4 +16.9 91 +19 +19 1012.3 1009.9
12 12.02 С 2 6000 м 10/10 300 м
[St]
+18.4 +16.0 86 +20 +20 1015.4 1012.9 +18.2 +29.7
15 12.02 С 3 10 км 9/9 930 м
[Sc diur, vesp]
+19.9 +14.9 73 +22 +23 комфорт 1020.8 1018.3
18 12.02 СЗ 3 10 км 6/0 2000 м
[Ac trans]
+24.3 +11.2 44 +26 +33 жарко 1023.3 1020.8 +18.2 +24.3
21 12.02 СЗ 3 10 км 8/0 2000 м
[As op]
+20.4 -0.9 24 +21 +23 комфорт 1023.0 1020.5
00 13.02 СВ 1 10 км в посл. час морось 10/10 450 м
[St]
+18.0 +3.5 38 +19 +19 1022.9 1020.4 +17.9 +24.7 0.1
03 13.02 СВ 1 6000 м 10/10 2000 м
[Frnb]
+16.0 +6.2 52 +17 +17 1025.8 1023.3
06 13.02 штиль 0 5000 м 10/0 2000 м
[]
+15.2 +5.7 53 +15 +15 1026.6 1024.1 +24.7
09 13.02 штиль 0 5000 м 10/0 2000 м
[]
+14.4 +9.7 73 +14 +14 1026.7 1024.2
12 13.02 штиль 0 6000 м ясно +11.4 +5.7 68 +11 +11 1026.7 1024.2 +11.2 +24.7
15 13.02 штиль 0 12 км ясно +11.0 +2.8 57 +11 +17 1026.5 1023.9
18 13.02 В 1 12 км ясно +22.5 +8.7 41 +24 +40 комфорт 1025.2 1022.7 +11.2 +22.5
21 13.02 ЮВ 1 12 км ясно +27.5 +9.6 33 +28 +38 жарко 1019.5 1017.0
00 14.02 СВ 1 10 км ясно +22.0 +10.4 48 +24 +24 комфорт 1019.5 1017.0 +9.4 +27.5
03 14.02 СВ 1 6000 м ясно +16.6 +11.8 73 +17 +17 1020.0 1017.5
09 14.02 ЮВ 1 5000 м ясно +12.2 +10.8 91 +12 +12 1016.3 1013.9
15 14.02 штиль 0 10 км ясно +15.5 +9.5 67 +15 +21 1014.2 1011.7
18 14.02 штиль 0 10 км 4/0
[Cs]
+27.6 +14.2 44 +30 +47 жарко 1013.1 1010.6 +12.3 +27.6
21 14.02 В 1 10 км 5/0
[Cs]
+31.4 +14.8 37 +34 +43 душно 1009.2 1006.8
00 15.02 В 1 10 км 5/0
[Ci]
+28.0 +16.6 50 +32 +32 душно 1008.4 1006.0 +11.7 +31.4
03 15.02 штиль 0 5000 м ясно +21.8 +16.3 71 +26 +26 душно 1011.1 1008.7
06 15.02 штиль 0 5000 м ясно +18.9 +15.3 80 +20 +20 1010.7 1008.3 +31.4
09 15.02 штиль 0 5000 м ясно +15.5 +13.2 86 +15 +15 1009.6 1007.2
12 15.02 штиль 0 6000 м ясно +14.4 +13.3 93 +14 +14 1010.6 1008.1 +14.2 +31.4
15 15.02 штиль 0 10 км ясно +15.8 +13.7 87 +16 +22 1009.5 1007.0

 

Местоположение метеостанции Сото ла Марина (Мексика): широта 23.77 долгота -98.20 высота над уровнем моря 21 м.

В архиве по умолчанию представлена погода в Сото ла Марина за последнюю неделю. Архивные данные за месяц целиком и за предыдущие месяцы, начиная с января 2011 года, Вы можете получить, выбрав интересующий диапазон дат из раскрывающегося списка и нажав кнопку "Ввод!".


*Определитесь, кто Вы:
робот инопланетянин человек

Внимание! Время в таблицах - всемирное. Для получения местного времени необходимо прибавить поправку, которая равна -6 ч.

Смотрите также архив погоды в соседних городах и на ближайших метеорологических станциях:

Погода в Сьюдад-Виктории (Мексика) (95 км)
Погода в Тампико (Мексика) (178 км)
Погода в Тамуине (Мексика) (205 км)
Погода в Рио-Верде (Мексика) (274 км)
Погода в Маталапе (Мексика) (280 км)
Погода в Монтеррее (Мексика) (304 км)
Погода в Туспане (Мексика) (324 км)
Погода в Сан-Луис-Потоси (Мексика) (328 км)
Погода в Солтильо (Мексика) (334 км)
Погода в Пачуке (Мексика) (409 км)

Пояснения к столбцам:

Ветер - указаны скорость ветра в м/с - средняя за 10 мин, порывы в срок и между сроками (в фигурных скобках) и направление, откуда дует ветер: С - северный, СВ - северо-восточный, В - восточный, ЮВ - юго-восточный, Ю - южный, ЮЗ - юго-западный, З - западный, СЗ - северо-западный.
Видимость - горизонтальная дальность видимости в метрах или километрах. При видимости от 1 до 10 км при отсутствии осадков обычно наблюдается дымка, при ухудшении видимости до 1 км и менее - туман. В сухую погоду видимость может ухудшаться дымом, пылью или мглою.
Явления - указаны атмосферные явления, наблюдавшиеся в срок или в последний час перед сроком; фигурными скобками обозначены явления, наблюдавшиеся между сроками (за 1-3 часа до срока); квадратными скобками обозначены град или гололедные отложения с указанием их диаметра в мм.
Облачность - указаны через наклонную черту общая и нижняя облачность в баллах и высота нижней границы облаков в метрах; квадратными скобками обозначены формы облаков: Ci - перистые, Cs - перисто-слоистые, Cc - перисто-кучевые, Ac - высококучевые, As - высокослоистые, Sc - слоисто-кучевые, Ns - слоисто-дождевые, Cu - кучевые, Cb - кучево-дождевые. Подробнее классификацию облаков см. в Атласе облаков (PDF).
T - Температура воздуха - температура, измеренная на высоте 2 м над землей.
Td - Температура точки росы - температура, при понижении до которой содержащийся в воздухе водяной пар достигнет насыщения.
f - Относительная влажность воздуха - влажноcть воздуха, измеренная на высоте 2 м над землей.
Te - Эффективная температура - температура, которую ощущает одетый по сезону человек в тени. Характеристика душности погоды. При расчете учитывается влияние влажности воздуха и скорости ветра на теплоощущения человека.
Tes - Эффективная температура на солнце - температура, которую ощущает человек, с поправкой на солнечный нагрев. Характеристика знойности погоды. Зависит от высоты солнца над горизонтом, облачности и скорости ветра. Ночью, в пасмурную погоду, а также при ветре 12 м/с и более поправка равна нулю.
P - Атмосферное давление - приведенное к уровню моря атмосферное давление.
Po - Атмосферное давление - измеренное на уровне метеостанции атмосферное давление.
Tmin - Минимальная температура - минимум температуры воздуха на высоте 2 м над землей.
Tmax - Максимальная температура - максимум температуры воздуха на высоте 2 м над землей.
R - Количество осадков - Количество выпавших осадков за период времени, мм. При наведении курсора мыши на число - период времени, за который выпало указанное количество осадков.
R24 - Количество осадков - Количество выпавших осадков за 24 часа, мм.
S - Снежный покров - Высота снежного покрова, см. При наведении курсора мыши на число - состояние снежного покрова и степень покрытия местности в баллах.